Vorticity
8 8 0 4 7 6 3 1 5 3 7 4 4 2 1 0 2 3 1 1 2 3 9 7 6 9 6 3 3 2 2 2 3 3 3 14 8 5 4 3 3 3 4 4 3 2 2 2 2
9 6 7 5 4 3 2 3 5 8 5 4 5 3 4 -1 4 1 4 3 6 8 7 1 2 3 8 6 5 3 3 3 3 2 1 2 7 14 7 5 3 2 2 2 2 1 3 2 3
15 15 16 12 4 2 2 4 4 4 8 4 10 2 2 -2 3 -0 -3 2 -0 4 5 5 5 5 4 5 6 6 6 6 4 4 3 2 2 3 5 12 12 8 6 6 6 6 5 4 4
5 6 11 20 14 10 8 7 8 6 7 9 2 3 6 3 4 4 12 6 9 4 6 6 4 5 4 3 4 4 4 4 6 6 7 6 3 2 3 3 3 3 5 8 9 10 10 11 12
4 5 7 6 8 9 9 9 9 8 7 8 3 1 9 3 9 12 16 11 5 7 6 4 5 4 5 4 2 3 4 5 3 3 3 5 9 11 6 4 3 4 4 4 4 3 3 4 4
5 5 4 7 6 8 8 9 7 7 9 9 3 5 7 8 2 11 13 8 5 4 5 7 6 4 4 3 2 3 2 1 4 4 5 3 0 -1 3 9 9 6 5 5 5 6 6 6 7
6 3 3 1 6 7 6 8 10 5 5 1 3 4 -6 8 -8 8 3 3 3 8 4 7 10 10 8 7 7 4 5 4 3 3 2 3 2 3 4 3 6 8 8 6 5 5 5 5 6
5 4 3 3 3 3 6 6 4 5 7 8 9 10 6 4 6 8 13 12 11 7 8 9 6 6 4 5 7 7 7 3 2 3 2 3 3 2 3 2 1 -2 7 3 10 6 5 5 5
5 4 3 3 1 4 3 3 3 4 5 5 4 4 4 7 9 11 8 8 9 10 8 8 11 11 8 6 5 4 4 4 4 3 4 4 4 4 5 7 3 9 -2 16 -1 6 6 4 4
4 3 3 3 3 3 3 4 2 2 3 4 4 7 7 11 9 8 7 8 8 8 6 4 3 4 7 10 10 8 5 5 5 5 4 4 5 6 9 4 4 2 2 -0 19 -4 -0 3 5
7 5 4 3 4 4 4 3 1 4 4 6 7 5 10 8 3 6 9 10 10 8 10 9 7 7 8 5 4 6 7 8 8 8 7 6 4 2 3 3 3 5 7 9 0 7 14 4 0
6 8 6 4 2 3 6 7 8 7 9 12 8 4 7 2 0 1 6 5 5 6 9 12 10 6 6 7 9 6 5 6 6 5 5 6 7 7 8 8 8 9 7 4 4 2 6 6 8
8 6 5 4 5 3 8 7 10 10 1 8 8 7 5 4 1 2 4 5 5 6 5 4 5 8 11 12 8 7 7 6 6 5 3 2 1 1 2 4 4 5 4 8 6 8 1 4 5
10 8 7 5 7 9 3 5 4 3 2 7 9 8 6 4 4 5 4 7 7 7 8 3 3 5 7 8 7 7 6 6 5 4 3 3 3 4 4 6 7 7 5 2 1 1 6 8 8
10 6 9 8 10 9 4 4 4 4 3 4 5 8 10 10 8 5 3 1 -1 2 6 6 4 4 3 6 7 8 8 8 9 8 8 7 8 8 8 8 7 8 6 5 5 5 2 1 9
10 8 5 10 11 11 9 1 4 1 0 3 6 6 7 8 7 7 4 4 10 11 6 5 10 -6 5 8 7 4 3 5 5 4 3 3 3 4 5 4 4 4 7 9 7 4 3 6 2
6 8 9 10 11 8 5 2 3 0 0 7 8 6 7 5 6 8 8 10 9 9 10 12 9 -9 -1 -2 -1 0 2 3 7 9 8 6 5 6 5 5 5 7 6 5 4 7 7 6 6
5 8 6 9 10 8 6 5 1 6 15 11 8 8 10 11 10 10 10 8 -1 -4 -0 4 -1 1 3 7 8 7 7 7 6 6 6 6 5 4 5 4 4 4 6 7 7 6 5 5 5
9 6 6 7 10 4 0 1 12 3 9 6 4 7 6 6 5 2 0 -1 1 6 6 7 7 6 4 6 6 10 12 12 11 9 10 9 8 7 6 1 2 6 6 8 9 11 2 6 7
9 10 8 5 7 6 6 4 5 8 11 6 5 7 6 5 3 2 3 9 6 2 2 1 -0 1 4 10 10 9 7 7 7 8 6 6 5 4 3 4 3 2 0 -0 -2 1 10 12 3
5 6 5 4 6 4 5 3 5 5 6 7 8 6 5 2 5 8 7 5 4 3 1 -1 0 3 8 10 8 5 6 7 5 7 10 12 11 13 14 15 15 11 5 4 11 11 5 6 19
3 3 2 5 6 3 5 3 0 4 6 6 7 5 8 11 6 5 3 3 1 1 2 2 3 10 8 7 6 3 2 5 9 12 12 12 13 12 13 14 14 14 13 20 16 11 7 5 10
5 6 6 3 2 2 1 7 2 6 7 7 8 13 5 2 4 3 3 3 0 -3 -2 9 18 12 11 8 8 14 19 18 17 18 14 10 8 12 15 18 22 19 16 16 19 22 15 22 22
4 3 4 2 -1 5 -5 3 0 4 9 10 10 6 7 4 2 3 -0 -3 2 21 16 11 10 9 12 14 14 12 14 12 3 8 14 19 15 9 6 6 7 8 9 10 9 10 15 14 11
-2 -7 -4 1 1 -2 0 5 4 5 8 9 11 7 1 4 8 -3 5 18 12 13 11 12 11 11 7 8 3 11 10 4 14 16 8 6 8 10 12 13 20 31 35 43 37 24 13 13 14
2 1 3 9 6 9 12 1 9 9 13 6 7 3 3 0 3 16 16 9 9 6 9 10 6 9 3 6 12 11 7 17 10 9 10 8 10 17 23 42 38 27 16 13 21 31 36 52 38
6 3 15 12 10 13 5 7 10 15 7 -2 5 7 0 12 16 10 7 6 8 10 6 7 11 11 13 13 13 12 19 11 9 10 14 17 25 37 30 6 16 7 17 17 20 17 17 7 15
-0 10 11 7 7 5 3 14 18 0 3 14 5 7 14 6 7 11 13 13 9 6 9 13 9 13 19 13 18 16 10 8 9 11 18 14 21 9 8 11 17 14 12 28 20 6 30 30 24
14 14 21 11 -3 9 13 -6 -3 7 9 7 11 4 8 10 12 11 8 8 11 6 12 11 16 9 10 20 12 8 9 8 13 21 12 9 18 9 3 0 10 8 11 35 15 24 23 14 13
6 5 4 -6 -1 1 -4 -6 11 13 11 13 -0 6 8 13 10 9 10 11 9 17 11 9 8 15 17 11 8 8 8 10 15 13 6 1 18 16 5 7 8 5 4 38 19 13 6 15 21
Height
5872 5872 5872 5873 5877 5875 5875 5876 5876 5876 5877 5876 5876 5875 5875 5875 5875 5877 5874 5873 5873 5872 5871 5870 5870 5869 5868 5867 5866 5865 5864 5862 5861 5860 5859 5858 5857 5856 5856 5856 5856 5855 5855 5854 5853 5852 5850 5849 5847
5868 5868 5868 5870 5873 5873 5873 5874 5874 5874 5874 5873 5873 5873 5873 5872 5873 5873 5873 5872 5871 5870 5869 5869 5868 5868 5867 5866 5865 5864 5863 5862 5860 5859 5858 5857 5855 5854 5853 5852 5852 5851 5851 5850 5850 5848 5847 5845 5843
5865 5864 5866 5867 5869 5870 5871 5872 5872 5872 5872 5871 5871 5872 5871 5871 5871 5870 5870 5870 5869 5868 5866 5866 5865 5865 5864 5864 5863 5863 5862 5862 5860 5858 5857 5855 5853 5852 5851 5850 5848 5847 5846 5846 5845 5844 5842 5841 5839
5863 5862 5863 5864 5865 5867 5868 5868 5868 5869 5869 5869 5870 5870 5870 5869 5869 5869 5868 5867 5867 5866 5865 5863 5862 5861 5860 5859 5859 5859 5859 5858 5857 5857 5856 5855 5852 5850 5849 5847 5845 5844 5842 5842 5840 5839 5837 5836 5834
5860 5859 5861 5862 5864 5864 5865 5864 5865 5866 5866 5868 5869 5869 5869 5868 5869 5867 5865 5864 5863 5862 5861 5860 5859 5857 5856 5855 5855 5855 5855 5855 5853 5852 5851 5850 5850 5849 5847 5844 5843 5841 5840 5838 5836 5835 5833 5832 5830
5858 5857 5859 5860 5860 5861 5861 5862 5862 5862 5863 5864 5865 5866 5867 5867 5866 5864 5862 5861 5860 5858 5856 5854 5854 5853 5852 5850 5850 5850 5850 5849 5848 5847 5846 5845 5844 5843 5842 5841 5839 5837 5836 5834 5833 5831 5829 5828 5825
5856 5854 5856 5857 5858 5857 5857 5858 5858 5858 5859 5860 5861 5861 5862 5862 5861 5861 5859 5858 5856 5854 5852 5850 5849 5848 5847 5846 5846 5845 5844 5843 5843 5842 5841 5840 5839 5838 5837 5835 5833 5832 5831 5830 5828 5827 5825 5823 5821
5853 5852 5853 5854 5854 5854 5854 5855 5855 5855 5855 5856 5857 5857 5857 5856 5855 5855 5855 5853 5851 5849 5847 5845 5844 5842 5842 5840 5840 5840 5839 5838 5837 5836 5836 5835 5833 5832 5831 5829 5828 5826 5824 5823 5823 5822 5819 5817 5815
5849 5850 5848 5849 5850 5850 5850 5850 5851 5851 5852 5852 5851 5851 5851 5851 5850 5849 5848 5847 5846 5844 5842 5840 5838 5837 5835 5834 5833 5832 5832 5831 5831 5830 5830 5828 5827 5826 5825 5823 5821 5819 5818 5816 5816 5815 5814 5812 5811
5845 5845 5846 5845 5845 5845 5845 5845 5845 5845 5844 5844 5845 5846 5846 5845 5844 5843 5842 5841 5840 5839 5837 5835 5833 5831 5830 5828 5827 5825 5824 5824 5824 5823 5823 5821 5820 5819 5818 5816 5814 5812 5811 5809 5808 5808 5808 5808 5807
5840 5840 5841 5841 5841 5840 5840 5839 5840 5840 5840 5840 5840 5840 5840 5840 5840 5839 5837 5836 5834 5833 5832 5830 5828 5826 5825 5823 5822 5820 5818 5817 5816 5816 5815 5814 5813 5811 5810 5809 5807 5805 5803 5802 5800 5800 5799 5799 5800
5836 5836 5836 5837 5837 5836 5835 5834 5835 5834 5835 5835 5835 5836 5835 5835 5834 5833 5832 5830 5829 5828 5827 5824 5822 5820 5818 5817 5815 5814 5813 5810 5808 5807 5806 5805 5804 5803 5801 5800 5799 5797 5796 5795 5793 5792 5791 5790 5790
5830 5831 5831 5832 5832 5832 5830 5830 5830 5830 5830 5829 5830 5830 5829 5827 5827 5826 5824 5823 5823 5822 5820 5818 5817 5815 5813 5810 5808 5807 5805 5804 5801 5799 5798 5796 5795 5794 5792 5791 5790 5789 5788 5787 5787 5785 5785 5783 5781
5824 5825 5825 5827 5826 5826 5825 5826 5826 5826 5825 5824 5823 5823 5823 5822 5821 5821 5820 5818 5816 5815 5813 5811 5809 5807 5806 5805 5802 5799 5797 5796 5795 5792 5790 5788 5785 5784 5782 5780 5780 5780 5779 5779 5778 5777 5776 5776 5773
5817 5818 5819 5820 5821 5822 5819 5821 5822 5822 5820 5819 5818 5818 5817 5817 5816 5815 5814 5813 5812 5810 5807 5804 5802 5800 5798 5796 5794 5792 5790 5787 5785 5782 5780 5778 5775 5773 5771 5769 5768 5768 5768 5766 5766 5766 5765 5765 5764
5810 5812 5812 5813 5814 5815 5814 5816 5816 5816 5815 5814 5814 5813 5811 5810 5809 5808 5808 5807 5805 5803 5800 5798 5796 5794 5791 5788 5785 5782 5780 5778 5775 5772 5768 5766 5764 5762 5759 5757 5756 5755 5753 5754 5753 5753 5754 5754 5753
5805 5806 5807 5807 5807 5808 5808 5809 5810 5809 5809 5808 5806 5806 5805 5804 5803 5802 5800 5799 5797 5795 5792 5790 5787 5784 5780 5777 5774 5771 5769 5766 5763 5759 5756 5753 5750 5748 5747 5745 5744 5743 5742 5740 5739 5739 5739 5740 5741
5799 5800 5802 5802 5804 5803 5803 5803 5803 5803 5802 5801 5800 5800 5799 5799 5797 5795 5793 5791 5789 5787 5784 5781 5778 5774 5770 5766 5763 5759 5756 5753 5749 5746 5742 5739 5735 5733 5732 5731 5730 5730 5729 5728 5725 5724 5724 5723 5723
5793 5795 5795 5796 5797 5798 5799 5798 5797 5797 5796 5795 5794 5793 5792 5790 5789 5787 5785 5783 5780 5778 5774 5772 5769 5765 5760 5756 5752 5747 5741 5737 5733 5729 5726 5723 5721 5718 5715 5714 5713 5712 5710 5711 5711 5711 5709 5708 5706
5786 5788 5789 5789 5790 5791 5790 5789 5788 5789 5789 5789 5787 5786 5784 5782 5780 5777 5775 5772 5769 5766 5762 5759 5755 5752 5749 5745 5741 5736 5730 5726 5721 5716 5711 5707 5703 5699 5697 5694 5693 5691 5692 5691 5690 5692 5693 5693 5689
5779 5780 5781 5782 5782 5782 5782 5781 5781 5781 5781 5780 5780 5779 5776 5773 5771 5768 5765 5762 5758 5755 5751 5747 5743 5738 5733 5729 5724 5719 5715 5710 5705 5700 5696 5691 5687 5683 5679 5675 5671 5669 5668 5668 5668 5667 5671 5674 5674
5771 5772 5773 5774 5775 5774 5772 5773 5774 5773 5772 5772 5770 5768 5766 5763 5761 5758 5754 5750 5746 5742 5738 5734 5729 5723 5718 5713 5708 5704 5700 5695 5689 5684 5678 5672 5666 5661 5657 5652 5648 5645 5643 5642 5642 5643 5645 5646 5652
5765 5764 5765 5766 5764 5764 5764 5765 5766 5764 5764 5763 5760 5757 5755 5753 5750 5747 5742 5738 5733 5729 5725 5720 5714 5708 5702 5697 5693 5689 5684 5678 5672 5666 5661 5655 5649 5642 5637 5632 5629 5625 5620 5617 5617 5617 5619 5621 5623
5755 5755 5756 5755 5754 5753 5757 5757 5757 5756 5755 5752 5750 5748 5745 5742 5739 5735 5730 5726 5721 5716 5710 5705 5700 5694 5689 5685 5679 5674 5668 5662 5656 5650 5644 5638 5632 5626 5619 5612 5606 5600 5596 5593 5590 5592 5593 5596 5598
5746 5747 5745 5743 5742 5745 5747 5744 5747 5745 5744 5741 5739 5736 5733 5731 5727 5722 5717 5711 5706 5701 5696 5691 5686 5681 5675 5669 5662 5657 5651 5645 5640 5634 5628 5622 5615 5607 5600 5593 5585 5577 5570 5563 5562 5562 5565 5568 5571
5735 5734 5733 5731 5732 5733 5733 5731 5735 5734 5733 5730 5726 5724 5721 5717 5713 5707 5702 5697 5692 5687 5681 5676 5671 5666 5660 5654 5649 5643 5636 5630 5624 5619 5612 5604 5597 5591 5583 5573 5565 5558 5552 5545 5540 5537 5535 5537 5541
5723 5721 5725 5720 5719 5718 5720 5722 5722 5722 5720 5717 5715 5712 5708 5702 5697 5692 5688 5683 5678 5673 5669 5664 5658 5652 5647 5642 5636 5629 5623 5617 5611 5604 5595 5587 5581 5574 5567 5560 5552 5545 5537 5531 5525 5522 5519 5517 5516
5711 5714 5710 5707 5706 5705 5706 5710 5710 5709 5706 5705 5702 5698 5693 5688 5685 5680 5676 5671 5666 5662 5657 5651 5646 5640 5635 5629 5624 5618 5612 5605 5598 5590 5582 5576 5569 5563 5557 5549 5541 5534 5525 5517 5511 5507 5503 5501 5499
5696 5697 5696 5697 5692 5692 5694 5699 5698 5695 5694 5692 5688 5684 5681 5677 5673 5669 5665 5660 5655 5650 5644 5638 5633 5628 5623 5617 5612 5606 5599 5592 5584 5577 5572 5566 5559 5553 5548 5540 5532 5524 5515 5506 5499 5494 5491 5488 5486
5680 5682 5683 5681 5682 5680 5680 5686 5684 5684 5682 5680 5676 5673 5669 5665 5662 5657 5652 5648 5643 5638 5632 5628 5621 5616 5611 5605 5599 5593 5587 5579 5573 5567 5562 5556 5549 5543 5537 5530 5523 5515 5506 5496 5490 5485 5481 5476 5473